Tracking 19280 objects as of 15-Nov-2018
HD Live streaming from Space Station
objects crossing your sky now

GLOBALSTAR M084

Track GLOBALSTAR M084 now!
10-day predictions
GLOBALSTAR M084 is classified as:


NORAD ID: 38040
Int'l Code: 2011-080A
Perigee: 1,419.7 km
Apogee: 1,421.8 km
Inclination: 52.0 °
Period: 114.1 minutes
Semi major axis: 7791 km
RCS: 4.8621 m2 (large)
Launch date: December 28, 2011
Source: Globalstar (GLOB)
Launch site: TYURATAM MISSILE AND SPACE COMPLEX (TTMTR)
aabbcc
Your satellite tracking list
Your tracking list is empty




NASA's NSSDC Master Catalog

Two Line Element Set (TLE):
1 38040U 11080A   18318.90710521 -.00000102 +00000-0 +10868-4 0  9992
2 38040 051.9988 174.1015 0001343 091.0694 334.5480 12.62263755319005
Source of the keplerian elements: AFSPC